SCP
0 0 0 0 0 0 0 0 0 0 0 0 0 0 0 -0 0 0 0 -0 -0 -0 -0 -0 -0 -0 -0 -0 -0 -0 -0 -0 -0 -0 -0 -0 -0 -0 -0 -0 -0 -0 -0 -0 -0 -0 -0 -0 -0
0 0 0 0 0 0 0 0 0 0 0 0 0 0 0 0 0 0 0 0 -0 -0 -0 -0 -0 -0 -0 -0 -0 -0 -0 -0 -0 -0 -0 -0 -0 -0 -0 -0 -0 -0 -0 -0 -0 -0 -0 -0 -0
0 0 0 0 0 0 0 0 0 0 0 0 0 0 0 0 0 0 0 -0 -0 -0 -0 -0 -0 -0 -0 -0 -0 -0 -0 -0 -0 -0 -0 -0 -0 -0 -0 -0 -0 -0 -0 -0 -0 -0 -0 -0 -0
0 0 0 0 0 0 0 0 0 0 0 0 0 0 0 0 0 0 0 -0 -0 -0 -0 -0 -0 -0 -0 -0 -0 -0 -0 -0 -0 -0 -0 -0 -0 -0 -0 -0 -0 -0 -0 -0 0 0 0 0 0
0 0 0 0 0 0 0 0 0 0 0 0 0 0 0 0 0 0 0 0 -0 -0 0 0 0 -0 -0 -0 -0 -0 -0 -0 -0 -0 -0 -0 -0 -0 0 0 0 0 0 0 0 0 0 0 0
0 0 0 0 0 0 0 0 0 0 0 0 0 0 0 0 0 0 0 0 0 0 0 0 0 0 0 -0 -0 -0 -0 -0 -0 -0 -0 -0 -0 -0 0 0 0 0 0 0 0 0 0 0 0
0 0 0 0 0 0 0 0 0 0 0 0 0 0 0 0 0 0 0 0 0 0 0 0 0 0 0 0 0 0 -0 -0 0 0 0 0 0 0 0 0 0 0 0 0 0 0 0 0 0
0 0 0 0 0 0 0 0 0 0 0 0 0 0 0 0 0 0 0 0 0 0 0 0 0 0 0 0 0 0 0 0 0 0 0 0 0 0 0 0 0 0 0 0 0 0 0 0 0
0 0 0 0 0 0 0 0 0 0 0 0 0 0 0 0 0 0 0 0 0 0 0 0 0 0 0 0 0 0 0 0 0 0 0 0 0 0 0 0 0 0 0 0 0 0 0 0 0
0 0 0 0 0 0 0 0 0 0 0 0 0 0 0 0 0 0 0 0 0 0 0 0 0 0 0 0 0 0 0 0 0 0 0 0 0 0 0 0 0 0 0 0 0 0 0 0 0
0 0 0 0 0 0 0 0 0 0 0 0 0 0 0 0 0 0 0 0 0 0 0 0 0 0 0 0 0 0 0 0 0 0 0 0 0 0 0 0 0 0 0 0 0 0 0 0 0
0 0 0 0 0 0 0 0 0 0 0 0 0 0 0 0 0 0 0 0 0 0 0 0 0 0 0 1 0 0 0 0 0 0 0 0 0 0 0 0 0 0 0 0 0 0 0 0 0
-0 -0 -0 -0 0 0 0 0 0 0 0 0 0 0 0 0 0 0 0 0 0 0 0 0 0 0 0 0 0 0 0 0 0 0 0 0 0 0 0 0 0 0 0 0 0 0 0 0 0
0 0 0 0 0 0 0 0 0 -0 0 0 0 0 0 0 0 0 0 0 0 0 0 0 0 0 0 0 0 0 0 0 0 0 0 0 0 0 0 0 0 0 0 0 0 0 0 0 0
0 0 0 0 0 0 0 0 0 0 0 0 0 0 0 0 0 0 0 0 0 0 0 0 0 0 0 0 0 0 0 0 0 0 0 0 0 0 0 0 0 0 0 0 0 0 0 0 0
0 0 0 0 0 0 0 0 0 0 0 0 0 0 0 0 0 0 0 0 0 0 0 0 0 0 0 0 0 0 0 0 0 0 0 0 0 0 0 0 0 0 0 0 0 0 0 0 0
0 0 0 0 0 0 0 0 0 0 0 0 0 0 0 0 0 0 0 0 0 0 0 0 0 0 0 0 0 0 0 0 0 0 0 0 0 0 0 0 0 0 0 0 0 0 0 0 0
0 0 0 0 0 0 0 0 0 0 0 0 0 0 0 0 0 0 0 0 0 0 0 0 0 0 0 0 0 0 0 0 0 0 0 0 0 0 0 0 0 0 0 0 0 0 0 0 0
0 0 0 0 0 0 0 0 0 0 0 0 0 0 0 0 0 0 0 0 0 0 0 0 0 0 0 0 0 0 0 0 0 0 0 0 0 0 0 0 0 0 0 0 0 0 0 0 0
0 0 0 -0 0 0 0 0 0 0 0 0 0 0 0 0 0 0 0 0 0 0 0 0 0 0 0 0 0 0 0 0 0 0 0 0 0 0 0 0 0 0 0 0 0 0 0 0 0
0 0 0 0 0 -0 0 -0 0 0 0 0 0 0 0 0 0 0 0 0 0 0 0 0 0 0 0 0 0 0 0 0 0 0 0 0 0 0 0 0 0 0 0 0 0 0 0 0 0
-0 0 0 0 0 -0 0 -0 0 0 0 0 0 0 0 0 0 0 0 0 0 0 0 0 0 0 0 0 0 0 0 0 0 0 0 0 0 0 0 0 0 0 0 0 0 0 0 0 0
0 0 -0 -0 -0 -0 0 -0 0 0 0 0 0 0 0 0 0 0 0 0 0 0 0 0 0 0 0 0 0 0 0 0 0 0 0 0 0 0 0 0 0 0 0 0 0 0 0 0 0
0 -0 -0 0 -0 -0 -0 0 0 0 0 0 0 0 0 0 0 0 0 0 0 0 0 0 0 0 0 0 0 0 0 0 0 0 0 0 0 0 0 0 0 0 0 0 0 0 0 0 0
0 0 -0 -0 -0 -0 0 0 0 0 0 0 0 0 0 0 0 0 -0 0 0 0 0 0 0 0 0 0 0 0 0 0 0 0 0 0 0 0 0 0 0 0 0 0 0 0 0 0 0
-0 -0 -0 -0 -0 0 0 0 0 0 0 0 0 0 0 0 0 -0 -0 -0 -0 0 0 0 0 0 0 0 0 0 0 0 0 0 0 0 0 0 0 0 0 0 0 0 0 0 0 0 0
0 0 0 0 0 0 0 0 0 0 0 0 0 0 0 -0 -0 0 0 -0 -0 -0 -0 0 0 -0 0 0 0 0 0 0 0 0 0 0 0 0 0 0 0 0 0 0 0 0 0 0 0
0 0 0 0 0 0 0 0 0 0 0 0 0 0 0 -0 -0 0 0 0 0 -0 -0 0 0 -0 -0 0 0 0 0 0 0 0 0 0 0 0 0 0 0 0 0 0 0 0 0 0 0
0 0 0 0 0 0 0 0 0 0 0 0 0 0 0 -0 -0 -0 0 0 0 0 0 -0 0 0 -0 0 0 0 0 0 0 0 0 0 0 0 0 0 0 0 0 0 0 0 0 0 0
0 0 0 0 0 0 0 0 0 0 0 0 0 0 -0 -0 0 0 0 0 0 0 0 0 0 0 -0 -0 -0 -0 0 0 0 0 0 0 0 0 0 0 0 0 0 0 0 0 0 0 0
Wind_Speed_500mb
7 5 4 4 10 8 17 4 12 11 10 11 9 12 10 22 9 6 13 23 40 50 53 58 54 51 49 44 42 38 33 28 25 21 16 12 9 8 8 9 10 10 11 16 17 22 24 23 21
2 2 3 7 12 17 12 6 12 8 12 14 15 15 18 17 7 6 18 28 41 51 53 59 55 52 48 46 43 38 33 29 26 21 15 10 7 7 9 12 14 16 20 19 21 21 21 20 19
5 11 10 7 15 22 16 8 6 6 9 4 8 4 13 7 6 6 9 38 44 47 52 56 56 52 49 46 43 39 34 31 27 20 14 10 9 9 16 19 20 21 24 23 20 18 17 17 16
0 8 11 12 26 17 17 9 7 15 11 2 7 20 2 4 3 4 17 40 46 46 46 56 58 52 49 45 43 39 35 33 28 21 15 12 10 14 18 21 22 22 23 24 22 20 19 16 12
4 9 15 20 31 26 2 20 17 22 25 12 6 14 7 3 10 8 26 40 45 46 45 51 59 54 51 47 44 40 37 34 29 22 17 14 14 18 21 22 22 21 20 18 17 16 15 14 14
7 8 13 23 29 9 6 13 17 16 19 21 11 24 18 11 2 10 27 38 40 44 46 49 59 55 52 48 45 42 38 34 29 23 19 16 17 21 23 22 21 20 18 18 16 15 15 13 11
13 8 15 18 18 17 7 20 17 17 19 17 30 15 4 4 5 15 28 36 39 41 44 46 58 53 51 48 46 44 41 36 31 25 20 19 20 24 24 22 20 18 18 16 14 13 12 11 10
9 5 8 10 9 8 9 21 15 23 16 26 13 7 10 13 11 17 26 35 40 55 50 52 56 54 51 52 49 45 40 37 33 27 23 22 23 26 25 23 21 19 18 17 14 13 10 7 9
7 11 16 12 7 3 23 22 24 26 14 22 13 16 19 7 11 19 27 35 40 44 57 55 54 53 52 51 54 49 42 40 36 31 28 26 27 29 28 25 23 21 19 16 14 13 6 3 9
9 6 18 12 3 8 19 26 31 22 29 17 22 16 22 5 9 15 25 34 41 40 61 63 51 55 54 52 54 55 51 49 45 41 36 31 26 29 26 30 28 25 22 18 16 14 9 6 12
15 8 19 12 21 18 18 21 29 27 17 33 34 31 28 16 16 19 24 27 34 35 44 61 54 52 55 58 53 57 55 53 51 48 43 37 29 33 35 35 33 30 26 22 20 17 14 10 14
7 18 11 19 20 17 25 28 24 26 32 41 38 32 33 29 23 24 25 27 30 37 40 48 56 58 61 64 64 57 57 57 56 52 46 44 39 37 35 28 31 29 29 22 22 20 17 15 17
19 15 17 25 26 30 23 24 25 35 22 28 24 28 26 25 21 21 27 29 33 40 41 46 50 66 62 61 66 65 68 64 57 53 49 42 38 41 37 33 31 29 26 28 28 24 22 20 21
7 9 18 16 22 18 27 29 7 25 32 35 33 34 32 34 29 23 22 32 35 44 51 45 55 56 68 68 65 76 74 69 66 50 47 45 39 41 41 38 37 32 32 34 31 31 27 24 25
7 10 12 7 20 10 31 12 1 21 39 43 48 42 42 41 37 34 29 29 35 42 44 50 56 61 62 74 76 67 73 74 69 65 47 50 50 46 43 40 39 37 43 33 36 34 30 28 27
7 5 4 13 30 22 26 8 27 47 38 40 38 46 46 43 43 43 43 36 29 39 45 50 56 62 66 72 77 73 72 71 75 72 63 60 57 48 46 47 46 49 39 38 36 38 34 32 28
14 8 14 12 24 27 24 21 37 39 37 37 43 39 44 48 52 53 54 45 30 28 38 49 57 60 65 72 73 76 78 77 81 79 70 67 61 55 50 51 48 50 44 42 38 36 35 32 29
19 16 18 21 25 30 21 24 30 38 40 44 46 49 52 52 56 56 57 54 42 24 19 35 52 63 67 66 72 76 78 81 82 80 74 71 66 62 59 56 58 51 50 46 46 42 38 37 33
14 17 22 29 20 29 24 22 24 38 47 49 50 53 55 57 53 58 61 61 53 43 25 17 22 51 65 69 70 76 82 85 85 86 81 73 71 70 67 67 64 58 58 52 53 47 45 41 35
17 18 19 14 32 27 24 12 27 36 43 49 53 56 60 64 66 69 69 68 66 61 49 36 34 39 40 67 74 80 81 88 86 88 84 81 77 79 72 72 67 66 63 63 62 55 50 47 40
14 19 29 30 33 20 21 24 15 22 45 49 52 52 57 63 68 75 80 79 71 75 71 60 46 41 48 43 69 76 82 90 93 92 87 87 91 86 76 75 74 72 71 69 67 60 54 49 42
12 32 34 33 23 7 17 5 14 20 26 46 54 59 61 64 65 67 75 84 79 83 74 66 58 49 41 51 48 76 84 88 98 101 91 94 95 90 86 87 83 77 74 68 68 61 56 52 47
13 44 33 25 14 8 10 8 6 17 25 39 49 53 57 58 61 66 68 69 75 89 82 76 67 56 43 42 55 55 82 94 93 100 102 97 94 98 96 94 89 85 80 81 79 62 58 54 51
41 32 14 2 4 7 10 12 6 12 21 30 47 55 57 58 60 64 67 71 80 91 90 84 77 66 53 42 53 49 69 82 94 91 95 96 101 98 96 96 91 89 86 82 81 65 60 54 54
40 30 7 3 3 6 6 17 13 13 20 31 41 53 55 55 59 63 69 78 81 87 93 94 86 76 65 50 40 53 33 68 81 93 93 99 94 100 96 93 96 90 79 85 78 67 59 60 57
19 15 8 10 10 22 27 11 10 12 14 27 38 47 53 56 55 56 58 60 69 78 83 91 93 85 74 65 49 44 57 38 66 78 88 100 102 91 100 96 96 75 80 82 74 71 66 59 56
11 9 10 9 9 10 8 9 12 6 7 25 41 53 53 53 52 55 56 57 65 71 75 78 87 88 79 70 62 47 48 54 43 70 69 78 88 89 90 87 83 93 93 91 82 73 67 56 57
10 12 2 1 10 12 11 22 15 3 21 35 52 55 52 51 50 50 54 59 64 73 74 79 83 83 85 75 66 58 47 45 51 48 67 77 84 82 81 92 99 89 93 85 77 71 65 62 57
4 4 6 4 8 9 14 9 5 20 28 35 47 53 48 51 54 52 53 57 62 70 79 82 81 85 85 86 74 66 57 46 40 38 55 67 72 78 81 84 98 103 100 86 87 81 74 62 58
4 0 4 4 4 12 20 23 22 6 34 39 43 45 39 42 50 51 53 56 60 66 77 82 86 84 87 84 84 70 60 55 46 36 41 57 70 74 77 80 90 103 100 94 79 73 61 55 53
Wind_Direction_500mb
335 333 155 254 244 235 254 247 298 290 312 27 322 271 320 308 307 10 150 171 165 164 175 174 174 174 175 175 173 171 172 171 166 160 156 156 153 153 162 166 173 171 163 139 131 128 136 146 151
85 153 190 260 251 238 252 176 244 354 343 302 297 276 259 281 68 56 134 166 166 165 174 176 177 178 177 179 177 177 176 175 170 166 163 153 150 151 152 147 147 145 139 137 132 135 141 148 156
113 164 238 234 243 244 261 94 3 53 32 310 292 286 309 22 67 137 197 156 161 168 173 179 179 181 182 182 182 182 181 179 175 173 165 162 159 154 140 134 125 116 117 123 127 130 138 148 158
281 205 230 242 246 244 285 330 4 323 4 107 323 285 196 281 34 155 180 162 163 168 174 187 182 182 184 185 186 187 187 181 179 177 172 168 162 152 142 134 128 121 116 115 114 110 110 118 136
289 238 241 233 252 262 0 298 296 296 295 277 335 284 282 335 263 218 168 165 168 168 176 192 184 185 188 188 189 191 190 184 184 183 181 177 168 157 152 145 139 132 130 126 121 118 115 110 103
236 282 233 242 250 223 292 322 322 299 312 298 275 263 280 274 310 176 165 168 172 172 183 196 187 190 190 191 192 193 193 189 191 191 189 184 176 169 162 157 147 140 135 132 127 119 112 105 96
277 228 257 280 277 282 5 347 13 347 323 355 330 285 1 40 179 166 166 170 175 176 189 193 187 193 191 194 195 197 194 195 197 199 196 192 184 176 171 166 160 156 153 149 141 129 113 93 70
263 261 239 222 279 267 40 352 10 9 346 334 347 347 28 16 248 164 169 172 177 196 185 185 189 191 194 195 200 201 199 201 202 203 202 199 191 186 185 182 178 176 173 169 164 153 132 81 31
315 242 231 229 220 71 9 353 348 329 304 333 321 329 329 332 271 173 176 182 185 202 186 185 198 195 199 201 199 204 204 205 206 206 207 204 199 196 196 196 194 194 193 192 185 178 166 61 10
341 310 325 86 48 357 331 342 338 341 332 356 12 21 356 318 291 216 197 198 196 201 193 191 200 194 198 203 207 202 207 209 208 209 210 207 198 204 207 211 204 206 207 209 204 203 216 290 339
353 310 350 313 356 343 338 331 335 328 321 337 338 328 343 335 294 248 230 220 218 211 208 202 193 200 205 202 205 206 209 211 214 213 213 206 198 206 197 215 209 214 214 217 217 218 234 270 311
169 259 267 291 290 301 307 310 307 307 320 323 318 311 318 309 301 279 256 234 227 220 215 216 202 202 210 209 207 209 213 212 215 216 214 205 206 213 201 211 209 215 218 207 218 223 239 273 302
230 211 236 271 293 287 292 287 295 302 345 347 357 2 347 335 325 295 274 255 240 227 225 227 212 213 207 218 217 213 212 213 213 218 213 206 209 214 210 207 208 209 217 213 221 234 251 274 295
355 303 284 291 289 289 310 307 339 42 19 357 6 2 359 359 348 316 284 274 249 255 232 223 225 222 220 214 223 219 219 218 215 212 211 210 213 219 215 214 213 210 211 220 229 241 252 270 287
292 288 282 22 4 25 346 279 99 54 353 335 359 355 347 347 348 348 337 297 282 265 259 242 234 223 226 223 225 224 223 223 221 221 215 218 215 219 216 217 219 212 232 235 238 239 256 267 280
313 248 295 43 10 23 1 304 350 348 351 352 325 347 359 9 13 5 358 340 314 286 272 255 249 244 234 234 230 230 229 225 226 224 225 225 225 218 219 222 221 231 237 240 248 238 248 260 268
41 342 351 342 39 7 6 325 343 334 348 20 19 10 5 6 3 358 352 344 345 315 284 274 259 255 249 240 236 236 235 231 231 228 228 231 227 222 220 223 228 236 236 240 232 237 248 259 265
335 336 331 338 351 351 341 343 341 43 49 40 31 24 17 14 7 1 358 353 344 321 307 285 276 268 263 248 243 240 239 237 235 233 228 232 233 226 226 228 234 236 237 237 231 241 246 251 256
334 326 334 337 1 344 341 338 63 52 49 39 35 27 22 14 8 8 6 1 0 351 310 255 265 278 266 258 248 239 239 240 239 237 231 231 234 231 230 231 238 235 234 240 235 237 244 244 246
15 16 1 324 346 332 334 344 88 62 47 35 25 20 14 9 8 7 7 6 4 357 347 325 264 245 258 259 262 252 244 240 240 241 234 230 229 233 235 236 237 236 232 235 233 234 239 240 239
5 5 339 312 324 303 357 137 111 67 47 31 25 20 14 8 3 2 1 3 4 3 358 348 327 276 251 250 256 255 241 239 240 239 237 230 227 236 237 238 236 234 234 235 235 233 237 240 238
339 354 323 316 336 337 338 274 68 27 27 26 22 17 12 8 6 4 0 360 360 1 0 357 346 326 278 246 259 253 248 240 247 246 240 232 234 234 235 238 235 235 236 234 228 231 236 237 240
327 318 304 304 299 315 35 259 35 37 12 15 15 17 13 10 6 4 3 360 359 2 359 357 354 346 317 264 245 265 255 251 250 250 249 240 234 234 234 236 234 232 233 241 223 229 235 237 240
331 320 309 230 183 234 160 1 49 32 11 5 7 7 6 5 3 1 1 360 1 2 1 357 354 353 342 308 248 262 265 257 253 248 247 250 240 236 236 235 235 235 239 240 231 228 233 237 239
357 355 354 280 282 309 23 322 71 59 28 17 6 1 359 358 358 357 356 356 354 356 2 360 355 352 350 333 294 250 289 257 261 254 252 250 258 241 237 237 238 231 238 233 227 227 233 236 234
340 349 18 312 319 305 299 257 126 117 32 8 360 353 350 350 351 354 354 354 354 353 355 0 357 352 351 346 328 286 268 275 257 252 251 254 258 260 241 236 247 236 238 230 223 226 230 231 232
349 30 344 288 231 270 236 117 169 200 348 349 351 347 345 344 344 346 347 350 352 355 355 354 358 355 352 349 344 324 281 273 271 266 263 255 258 256 253 233 246 248 220 229 227 224 231 230 232
38 4 250 38 300 294 284 294 304 303 328 341 340 338 331 334 337 340 343 342 343 353 353 358 358 359 356 348 345 343 323 290 266 276 262 261 262 261 260 247 237 240 232 225 224 224 223 226 227
329 49 21 279 264 289 309 279 133 352 357 339 338 335 330 329 329 332 337 338 338 342 349 355 358 357 357 357 344 341 342 316 284 281 277 267 267 262 259 255 238 231 227 227 220 217 222 218 221
276 205 15 296 259 279 282 276 278 68 350 338 338 339 331 330 330 331 335 337 337 339 342 347 353 352 354 356 355 340 336 340 312 288 286 278 263 262 253 248 244 231 226 218 215 207 214 211 221
Wind_Speed_850mb
7 5 4 4 10 8 17 4 12 11 10 11 9 12 10 22 9 6 13 23 40 50 53 58 54 51 49 44 42 38 33 28 25 21 16 12 9 8 8 9 10 10 11 16 17 22 24 23 21
2 2 3 7 12 17 12 6 12 8 12 14 15 15 18 17 7 6 18 28 41 51 53 59 55 52 48 46 43 38 33 29 26 21 15 10 7 7 9 12 14 16 20 19 21 21 21 20 19
5 11 10 7 15 22 16 8 6 6 9 4 8 4 13 7 6 6 9 38 44 47 52 56 56 52 49 46 43 39 34 31 27 20 14 10 9 9 16 19 20 21 24 23 20 18 17 17 16
0 8 11 12 26 17 17 9 7 15 11 2 7 20 2 4 3 4 17 40 46 46 46 56 58 52 49 45 43 39 35 33 28 21 15 12 10 14 18 21 22 22 23 24 22 20 19 16 12
4 9 15 20 31 26 2 20 17 22 25 12 6 14 7 3 10 8 26 40 45 46 45 51 59 54 51 47 44 40 37 34 29 22 17 14 14 18 21 22 22 21 20 18 17 16 15 14 14
7 8 13 23 29 9 6 13 17 16 19 21 11 24 18 11 2 10 27 38 40 44 46 49 59 55 52 48 45 42 38 34 29 23 19 16 17 21 23 22 21 20 18 18 16 15 15 13 11
13 8 15 18 18 17 7 20 17 17 19 17 30 15 4 4 5 15 28 36 39 41 44 46 58 53 51 48 46 44 41 36 31 25 20 19 20 24 24 22 20 18 18 16 14 13 12 11 10
9 5 8 10 9 8 9 21 15 23 16 26 13 7 10 13 11 17 26 35 40 55 50 52 56 54 51 52 49 45 40 37 33 27 23 22 23 26 25 23 21 19 18 17 14 13 10 7 9
7 11 16 12 7 3 23 22 24 26 14 22 13 16 19 7 11 19 27 35 40 44 57 55 54 53 52 51 54 49 42 40 36 31 28 26 27 29 28 25 23 21 19 16 14 13 6 3 9
9 6 18 12 3 8 19 26 31 22 29 17 22 16 22 5 9 15 25 34 41 40 61 63 51 55 54 52 54 55 51 49 45 41 36 31 26 29 26 30 28 25 22 18 16 14 9 6 12
15 8 19 12 21 18 18 21 29 27 17 33 34 31 28 16 16 19 24 27 34 35 44 61 54 52 55 58 53 57 55 53 51 48 43 37 29 33 35 35 33 30 26 22 20 17 14 10 14
7 18 11 19 20 17 25 28 24 26 32 41 38 32 33 29 23 24 25 27 30 37 40 48 56 58 61 64 64 57 57 57 56 52 46 44 39 37 35 28 31 29 29 22 22 20 17 15 17
19 15 17 25 26 30 23 24 25 35 22 28 24 28 26 25 21 21 27 29 33 40 41 46 50 66 62 61 66 65 68 64 57 53 49 42 38 41 37 33 31 29 26 28 28 24 22 20 21
7 9 18 16 22 18 27 29 7 25 32 35 33 34 32 34 29 23 22 32 35 44 51 45 55 56 68 68 65 76 74 69 66 50 47 45 39 41 41 38 37 32 32 34 31 31 27 24 25
7 10 12 7 20 10 31 12 1 21 39 43 48 42 42 41 37 34 29 29 35 42 44 50 56 61 62 74 76 67 73 74 69 65 47 50 50 46 43 40 39 37 43 33 36 34 30 28 27
7 5 4 13 30 22 26 8 27 47 38 40 38 46 46 43 43 43 43 36 29 39 45 50 56 62 66 72 77 73 72 71 75 72 63 60 57 48 46 47 46 49 39 38 36 38 34 32 28
14 8 14 12 24 27 24 21 37 39 37 37 43 39 44 48 52 53 54 45 30 28 38 49 57 60 65 72 73 76 78 77 81 79 70 67 61 55 50 51 48 50 44 42 38 36 35 32 29
19 16 18 21 25 30 21 24 30 38 40 44 46 49 52 52 56 56 57 54 42 24 19 35 52 63 67 66 72 76 78 81 82 80 74 71 66 62 59 56 58 51 50 46 46 42 38 37 33
14 17 22 29 20 29 24 22 24 38 47 49 50 53 55 57 53 58 61 61 53 43 25 17 22 51 65 69 70 76 82 85 85 86 81 73 71 70 67 67 64 58 58 52 53 47 45 41 35
17 18 19 14 32 27 24 12 27 36 43 49 53 56 60 64 66 69 69 68 66 61 49 36 34 39 40 67 74 80 81 88 86 88 84 81 77 79 72 72 67 66 63 63 62 55 50 47 40
14 19 29 30 33 20 21 24 15 22 45 49 52 52 57 63 68 75 80 79 71 75 71 60 46 41 48 43 69 76 82 90 93 92 87 87 91 86 76 75 74 72 71 69 67 60 54 49 42
12 32 34 33 23 7 17 5 14 20 26 46 54 59 61 64 65 67 75 84 79 83 74 66 58 49 41 51 48 76 84 88 98 101 91 94 95 90 86 87 83 77 74 68 68 61 56 52 47
13 44 33 25 14 8 10 8 6 17 25 39 49 53 57 58 61 66 68 69 75 89 82 76 67 56 43 42 55 55 82 94 93 100 102 97 94 98 96 94 89 85 80 81 79 62 58 54 51
41 32 14 2 4 7 10 12 6 12 21 30 47 55 57 58 60 64 67 71 80 91 90 84 77 66 53 42 53 49 69 82 94 91 95 96 101 98 96 96 91 89 86 82 81 65 60 54 54
40 30 7 3 3 6 6 17 13 13 20 31 41 53 55 55 59 63 69 78 81 87 93 94 86 76 65 50 40 53 33 68 81 93 93 99 94 100 96 93 96 90 79 85 78 67 59 60 57
19 15 8 10 10 22 27 11 10 12 14 27 38 47 53 56 55 56 58 60 69 78 83 91 93 85 74 65 49 44 57 38 66 78 88 100 102 91 100 96 96 75 80 82 74 71 66 59 56
11 9 10 9 9 10 8 9 12 6 7 25 41 53 53 53 52 55 56 57 65 71 75 78 87 88 79 70 62 47 48 54 43 70 69 78 88 89 90 87 83 93 93 91 82 73 67 56 57
10 12 2 1 10 12 11 22 15 3 21 35 52 55 52 51 50 50 54 59 64 73 74 79 83 83 85 75 66 58 47 45 51 48 67 77 84 82 81 92 99 89 93 85 77 71 65 62 57
4 4 6 4 8 9 14 9 5 20 28 35 47 53 48 51 54 52 53 57 62 70 79 82 81 85 85 86 74 66 57 46 40 38 55 67 72 78 81 84 98 103 100 86 87 81 74 62 58
4 0 4 4 4 12 20 23 22 6 34 39 43 45 39 42 50 51 53 56 60 66 77 82 86 84 87 84 84 70 60 55 46 36 41 57 70 74 77 80 90 103 100 94 79 73 61 55 53
Wind_Direction_850mb
335 333 155 254 244 235 254 247 298 290 312 27 322 271 320 308 307 10 150 171 165 164 175 174 174 174 175 175 173 171 172 171 166 160 156 156 153 153 162 166 173 171 163 139 131 128 136 146 151
85 153 190 260 251 238 252 176 244 354 343 302 297 276 259 281 68 56 134 166 166 165 174 176 177 178 177 179 177 177 176 175 170 166 163 153 150 151 152 147 147 145 139 137 132 135 141 148 156
113 164 238 234 243 244 261 94 3 53 32 310 292 286 309 22 67 137 197 156 161 168 173 179 179 181 182 182 182 182 181 179 175 173 165 162 159 154 140 134 125 116 117 123 127 130 138 148 158
281 205 230 242 246 244 285 330 4 323 4 107 323 285 196 281 34 155 180 162 163 168 174 187 182 182 184 185 186 187 187 181 179 177 172 168 162 152 142 134 128 121 116 115 114 110 110 118 136
289 238 241 233 252 262 0 298 296 296 295 277 335 284 282 335 263 218 168 165 168 168 176 192 184 185 188 188 189 191 190 184 184 183 181 177 168 157 152 145 139 132 130 126 121 118 115 110 103
236 282 233 242 250 223 292 322 322 299 312 298 275 263 280 274 310 176 165 168 172 172 183 196 187 190 190 191 192 193 193 189 191 191 189 184 176 169 162 157 147 140 135 132 127 119 112 105 96
277 228 257 280 277 282 5 347 13 347 323 355 330 285 1 40 179 166 166 170 175 176 189 193 187 193 191 194 195 197 194 195 197 199 196 192 184 176 171 166 160 156 153 149 141 129 113 93 70
263 261 239 222 279 267 40 352 10 9 346 334 347 347 28 16 248 164 169 172 177 196 185 185 189 191 194 195 200 201 199 201 202 203 202 199 191 186 185 182 178 176 173 169 164 153 132 81 31
315 242 231 229 220 71 9 353 348 329 304 333 321 329 329 332 271 173 176 182 185 202 186 185 198 195 199 201 199 204 204 205 206 206 207 204 199 196 196 196 194 194 193 192 185 178 166 61 10
341 310 325 86 48 357 331 342 338 341 332 356 12 21 356 318 291 216 197 198 196 201 193 191 200 194 198 203 207 202 207 209 208 209 210 207 198 204 207 211 204 206 207 209 204 203 216 290 339
353 310 350 313 356 343 338 331 335 328 321 337 338 328 343 335 294 248 230 220 218 211 208 202 193 200 205 202 205 206 209 211 214 213 213 206 198 206 197 215 209 214 214 217 217 218 234 270 311
169 259 267 291 290 301 307 310 307 307 320 323 318 311 318 309 301 279 256 234 227 220 215 216 202 202 210 209 207 209 213 212 215 216 214 205 206 213 201 211 209 215 218 207 218 223 239 273 302
230 211 236 271 293 287 292 287 295 302 345 347 357 2 347 335 325 295 274 255 240 227 225 227 212 213 207 218 217 213 212 213 213 218 213 206 209 214 210 207 208 209 217 213 221 234 251 274 295
355 303 284 291 289 289 310 307 339 42 19 357 6 2 359 359 348 316 284 274 249 255 232 223 225 222 220 214 223 219 219 218 215 212 211 210 213 219 215 214 213 210 211 220 229 241 252 270 287
292 288 282 22 4 25 346 279 99 54 353 335 359 355 347 347 348 348 337 297 282 265 259 242 234 223 226 223 225 224 223 223 221 221 215 218 215 219 216 217 219 212 232 235 238 239 256 267 280
313 248 295 43 10 23 1 304 350 348 351 352 325 347 359 9 13 5 358 340 314 286 272 255 249 244 234 234 230 230 229 225 226 224 225 225 225 218 219 222 221 231 237 240 248 238 248 260 268
41 342 351 342 39 7 6 325 343 334 348 20 19 10 5 6 3 358 352 344 345 315 284 274 259 255 249 240 236 236 235 231 231 228 228 231 227 222 220 223 228 236 236 240 232 237 248 259 265
335 336 331 338 351 351 341 343 341 43 49 40 31 24 17 14 7 1 358 353 344 321 307 285 276 268 263 248 243 240 239 237 235 233 228 232 233 226 226 228 234 236 237 237 231 241 246 251 256
334 326 334 337 1 344 341 338 63 52 49 39 35 27 22 14 8 8 6 1 0 351 310 255 265 278 266 258 248 239 239 240 239 237 231 231 234 231 230 231 238 235 234 240 235 237 244 244 246
15 16 1 324 346 332 334 344 88 62 47 35 25 20 14 9 8 7 7 6 4 357 347 325 264 245 258 259 262 252 244 240 240 241 234 230 229 233 235 236 237 236 232 235 233 234 239 240 239
5 5 339 312 324 303 357 137 111 67 47 31 25 20 14 8 3 2 1 3 4 3 358 348 327 276 251 250 256 255 241 239 240 239 237 230 227 236 237 238 236 234 234 235 235 233 237 240 238
339 354 323 316 336 337 338 274 68 27 27 26 22 17 12 8 6 4 0 360 360 1 0 357 346 326 278 246 259 253 248 240 247 246 240 232 234 234 235 238 235 235 236 234 228 231 236 237 240
327 318 304 304 299 315 35 259 35 37 12 15 15 17 13 10 6 4 3 360 359 2 359 357 354 346 317 264 245 265 255 251 250 250 249 240 234 234 234 236 234 232 233 241 223 229 235 237 240
331 320 309 230 183 234 160 1 49 32 11 5 7 7 6 5 3 1 1 360 1 2 1 357 354 353 342 308 248 262 265 257 253 248 247 250 240 236 236 235 235 235 239 240 231 228 233 237 239
357 355 354 280 282 309 23 322 71 59 28 17 6 1 359 358 358 357 356 356 354 356 2 360 355 352 350 333 294 250 289 257 261 254 252 250 258 241 237 237 238 231 238 233 227 227 233 236 234
340 349 18 312 319 305 299 257 126 117 32 8 360 353 350 350 351 354 354 354 354 353 355 0 357 352 351 346 328 286 268 275 257 252 251 254 258 260 241 236 247 236 238 230 223 226 230 231 232
349 30 344 288 231 270 236 117 169 200 348 349 351 347 345 344 344 346 347 350 352 355 355 354 358 355 352 349 344 324 281 273 271 266 263 255 258 256 253 233 246 248 220 229 227 224 231 230 232
38 4 250 38 300 294 284 294 304 303 328 341 340 338 331 334 337 340 343 342 343 353 353 358 358 359 356 348 345 343 323 290 266 276 262 261 262 261 260 247 237 240 232 225 224 224 223 226 227
329 49 21 279 264 289 309 279 133 352 357 339 338 335 330 329 329 332 337 338 338 342 349 355 358 357 357 357 344 341 342 316 284 281 277 267 267 262 259 255 238 231 227 227 220 217 222 218 221
276 205 15 296 259 279 282 276 278 68 350 338 338 339 331 330 330 331 335 337 337 339 342 347 353 352 354 356 355 340 336 340 312 288 286 278 263 262 253 248 244 231 226 218 215 207 214 211 221